VIV3154 MMCL-MMSD

Flight info

Callsign VIV3154
Flight time 0h 47m
Altitude 22000
Route OLEXU1B CUL UJ32 SJD
Aircraft A321/M-SDE3FGHIRWY/LB1

Departure

Time 2026-05-06 02:46
Airport Bachigualato Federal International Airport (MMCL)

Arrival

Time 2026-05-06 03:34
Airport Los Cabos International Airport (MMSD)
Time Latitude Longitude Altitude Speed Heading
2026-05-06 02:33 24.76749 -107.47035 113 ft 0 kts 123°
2026-05-06 02:40 24.76749 -107.47036 113 ft 1 kts 123°
2026-05-06 02:40 24.76757 -107.47050 113 ft 2 kts 123°
2026-05-06 02:40 24.76766 -107.47064 113 ft 2 kts 123°
2026-05-06 02:41 24.76769 -107.47079 113 ft 2 kts 75°
2026-05-06 02:41 24.76761 -107.47094 113 ft 2 kts 34°
2026-05-06 02:41 24.76752 -107.47098 113 ft 1 kts 27°
2026-05-06 02:41 24.76751 -107.47100 113 ft 0 kts 28°
2026-05-06 02:42 24.76751 -107.47099 113 ft 0 kts 28°
2026-05-06 02:43 24.76755 -107.47097 113 ft 2 kts 31°
2026-05-06 02:44 24.76789 -107.47073 113 ft 9 kts 33°
2026-05-06 02:44 24.76862 -107.47021 113 ft 13 kts 31°
2026-05-06 02:44 24.76946 -107.46984 113 ft 13 kts 33°
2026-05-06 02:44 24.77051 -107.46909 113 ft 22 kts 33°
2026-05-06 02:45 24.77175 -107.46820 113 ft 15 kts 32°
2026-05-06 02:45 24.77271 -107.46829 113 ft 15 kts 309°
2026-05-06 02:45 24.77307 -107.46931 113 ft 14 kts 243°
2026-05-06 02:45 24.77274 -107.46964 113 ft 0 kts 213°
2026-05-06 02:46 24.77260 -107.46974 113 ft 11 kts 213°
2026-05-06 02:46 24.76957 -107.47191 113 ft 91 kts 212°
2026-05-06 02:46 24.76225 -107.47711 131 ft 154 kts 213°
2026-05-06 02:46 24.75309 -107.48344 750 ft 158 kts 213°
2026-05-06 02:47 24.74390 -107.48992 1465 ft 160 kts 214°
2026-05-06 02:47 24.73464 -107.49659 2101 ft 164 kts 214°
2026-05-06 02:47 24.72497 -107.50352 2403 ft 175 kts 214°
2026-05-06 02:47 24.71422 -107.51120 2688 ft 189 kts 214°
2026-05-06 02:48 24.70253 -107.51949 2985 ft 204 kts 214°
2026-05-06 02:48 24.69016 -107.52824 3271 ft 221 kts 213°
2026-05-06 02:48 24.67655 -107.53786 3548 ft 242 kts 213°
2026-05-06 02:48 24.66186 -107.54806 3958 ft 258 kts 210°
2026-05-06 02:49 24.64416 -107.55308 4602 ft 268 kts 177°
2026-05-06 02:49 24.62690 -107.54601 5397 ft 274 kts 144°
2026-05-06 02:49 24.61430 -107.53019 6224 ft 279 kts 124°
2026-05-06 02:49 24.60601 -107.51089 7016 ft 285 kts 112°
2026-05-06 02:50 24.60123 -107.48949 7829 ft 290 kts 101°
2026-05-06 02:50 24.59977 -107.46750 8646 ft 295 kts 92°
2026-05-06 02:50 24.60142 -107.44430 9490 ft 299 kts 84°
2026-05-06 02:50 24.60595 -107.42210 10274 ft 304 kts 77°
2026-05-06 02:51 24.61340 -107.39988 10795 ft 319 kts 69°
2026-05-06 02:51 24.62431 -107.37759 11198 ft 337 kts 60°
2026-05-06 02:51 24.63827 -107.35662 11880 ft 344 kts 55°
2026-05-06 02:51 24.65158 -107.33476 12644 ft 342 kts 68°
2026-05-06 02:52 24.65787 -107.31008 13314 ft 337 kts 91°
2026-05-06 02:52 24.65476 -107.28507 13973 ft 331 kts 114°
2026-05-06 02:52 24.64396 -107.26262 14662 ft 330 kts 125°
2026-05-06 02:52 24.63178 -107.24129 15297 ft 334 kts 126°
2026-05-06 02:53 24.61923 -107.21954 15933 ft 339 kts 126°
2026-05-06 02:53 24.60654 -107.19745 16513 ft 344 kts 127°
2026-05-06 02:53 24.59080 -107.17785 16999 ft 345 kts 145°
2026-05-06 02:53 24.56996 -107.16539 17596 ft 343 kts 164°
2026-05-06 02:54 24.54646 -107.16136 18204 ft 342 kts 183°
2026-05-06 02:54 24.52333 -107.16614 18775 ft 344 kts 201°
2026-05-06 02:54 24.50251 -107.17950 19341 ft 348 kts 220°
2026-05-06 02:54 24.48680 -107.20001 19847 ft 356 kts 237°
2026-05-06 02:55 24.47427 -107.22372 20440 ft 358 kts 238°
2026-05-06 02:55 24.46199 -107.24766 20999 ft 361 kts 239°
2026-05-06 02:55 24.44971 -107.27158 21533 ft 363 kts 239°
2026-05-06 02:55 24.43708 -107.29612 21874 ft 365 kts 239°
2026-05-06 02:56 24.42454 -107.32042 21922 ft 365 kts 239°
2026-05-06 02:56 24.41199 -107.34468 21925 ft 365 kts 239°
2026-05-06 02:56 24.39941 -107.36896 21926 ft 364 kts 239°
2026-05-06 02:56 24.38672 -107.39339 21927 ft 364 kts 239°
2026-05-06 02:57 24.37411 -107.41766 21927 ft 364 kts 239°
2026-05-06 02:57 24.36149 -107.44191 21927 ft 364 kts 239°
2026-05-06 02:57 24.34885 -107.46620 21927 ft 364 kts 239°
2026-05-06 02:57 24.33622 -107.49045 21927 ft 364 kts 239°
2026-05-06 02:58 24.32343 -107.51498 21927 ft 364 kts 239°
2026-05-06 02:58 24.31088 -107.53906 21927 ft 364 kts 239°
2026-05-06 02:58 24.29826 -107.56325 21927 ft 364 kts 239°
2026-05-06 02:58 24.28551 -107.58767 21927 ft 364 kts 239°
2026-05-06 02:59 24.27288 -107.61184 21927 ft 364 kts 239°
2026-05-06 02:59 24.26022 -107.63607 21927 ft 364 kts 239°
2026-05-06 02:59 24.24753 -107.66034 21928 ft 364 kts 238°
2026-05-06 02:59 24.23505 -107.68420 21927 ft 364 kts 238°
2026-05-06 03:00 24.22237 -107.70842 21927 ft 364 kts 238°
2026-05-06 03:00 24.20956 -107.73288 21927 ft 364 kts 238°
2026-05-06 03:00 24.19707 -107.75673 21927 ft 364 kts 238°
2026-05-06 03:00 24.18434 -107.78101 21927 ft 364 kts 238°
2026-05-06 03:01 24.17160 -107.80530 21927 ft 364 kts 238°
2026-05-06 03:01 24.15884 -107.82962 21927 ft 364 kts 238°
2026-05-06 03:01 24.14619 -107.85372 21927 ft 364 kts 238°
2026-05-06 03:01 24.13360 -107.87769 21927 ft 364 kts 238°
2026-05-06 03:02 24.12095 -107.90176 21927 ft 364 kts 238°
2026-05-06 03:02 24.10826 -107.92590 21927 ft 364 kts 238°
2026-05-06 03:02 24.09568 -107.94982 21927 ft 364 kts 238°
2026-05-06 03:02 24.08316 -107.97361 21927 ft 364 kts 238°
2026-05-06 03:03 24.07032 -107.99799 21927 ft 364 kts 238°
2026-05-06 03:03 24.05770 -108.02195 21927 ft 364 kts 238°
2026-05-06 03:03 24.04501 -108.04604 21927 ft 364 kts 238°
2026-05-06 03:03 24.03225 -108.07022 21927 ft 364 kts 238°
2026-05-06 03:04 24.01948 -108.09444 21927 ft 364 kts 238°
2026-05-06 03:04 24.00673 -108.11860 21927 ft 364 kts 238°
2026-05-06 03:04 23.99401 -108.14269 21927 ft 364 kts 238°
2026-05-06 03:04 23.98140 -108.16654 21927 ft 364 kts 238°
2026-05-06 03:05 23.96864 -108.19068 21927 ft 364 kts 238°
2026-05-06 03:05 23.95593 -108.21473 21927 ft 364 kts 238°
2026-05-06 03:05 23.94326 -108.23867 21927 ft 364 kts 238°
2026-05-06 03:05 23.93090 -108.26202 21927 ft 364 kts 238°
2026-05-06 03:06 23.91802 -108.28634 21927 ft 364 kts 238°
2026-05-06 03:06 23.90537 -108.31020 21927 ft 364 kts 238°
2026-05-06 03:06 23.89261 -108.33427 21928 ft 364 kts 238°
2026-05-06 03:06 23.87989 -108.35825 21927 ft 364 kts 238°
2026-05-06 03:07 23.86717 -108.38223 21927 ft 364 kts 238°
2026-05-06 03:07 23.85433 -108.40641 21927 ft 364 kts 238°
2026-05-06 03:07 23.84176 -108.43006 21927 ft 364 kts 238°
2026-05-06 03:07 23.82894 -108.45418 21927 ft 364 kts 238°
2026-05-06 03:08 23.81613 -108.47827 21927 ft 364 kts 238°
2026-05-06 03:08 23.80335 -108.50229 21927 ft 364 kts 238°
2026-05-06 03:08 23.79062 -108.52621 21927 ft 364 kts 238°
2026-05-06 03:08 23.77789 -108.55012 21927 ft 364 kts 238°
2026-05-06 03:09 23.76506 -108.57420 21927 ft 364 kts 238°
2026-05-06 03:09 23.75227 -108.59820 21927 ft 364 kts 238°
2026-05-06 03:09 23.73951 -108.62213 21927 ft 364 kts 238°
2026-05-06 03:09 23.72671 -108.64612 21927 ft 364 kts 238°
2026-05-06 03:10 23.71386 -108.67019 21928 ft 364 kts 238°
2026-05-06 03:10 23.70106 -108.69416 21927 ft 364 kts 238°
2026-05-06 03:10 23.68834 -108.71796 21927 ft 364 kts 238°
2026-05-06 03:10 23.67562 -108.74177 21931 ft 363 kts 238°
2026-05-06 03:11 23.66293 -108.76551 21943 ft 360 kts 238°
2026-05-06 03:11 23.65042 -108.78888 21961 ft 359 kts 238°
2026-05-06 03:11 23.63770 -108.81264 21977 ft 359 kts 238°
2026-05-06 03:11 23.62492 -108.83650 21988 ft 359 kts 238°
2026-05-06 03:12 23.61221 -108.86021 21996 ft 359 kts 238°
2026-05-06 03:12 23.59965 -108.88364 22001 ft 359 kts 238°
2026-05-06 03:12 23.58678 -108.90763 22003 ft 358 kts 238°
2026-05-06 03:12 23.57420 -108.93107 22006 ft 357 kts 238°
2026-05-06 03:13 23.56176 -108.95425 21812 ft 360 kts 238°
2026-05-06 03:13 23.54879 -108.97839 21517 ft 370 kts 238°
2026-05-06 03:13 23.53589 -109.00240 21174 ft 371 kts 238°
2026-05-06 03:13 23.52261 -109.02711 20726 ft 369 kts 238°
2026-05-06 03:14 23.51269 -109.04557 20365 ft 367 kts 238°
2026-05-06 03:14 23.50008 -109.06902 19896 ft 365 kts 238°
2026-05-06 03:14 23.48729 -109.09278 19409 ft 362 kts 238°
2026-05-06 03:14 23.47457 -109.11639 18922 ft 360 kts 238°
2026-05-06 03:15 23.46197 -109.13976 18439 ft 358 kts 238°
2026-05-06 03:15 23.44932 -109.16321 17952 ft 356 kts 238°
2026-05-06 03:15 23.43680 -109.18641 17467 ft 354 kts 238°
2026-05-06 03:15 23.42432 -109.20953 16980 ft 352 kts 238°
2026-05-06 03:16 23.41195 -109.23244 16497 ft 349 kts 238°
2026-05-06 03:16 23.39952 -109.25547 16010 ft 347 kts 238°
2026-05-06 03:16 23.38731 -109.27806 15535 ft 343 kts 238°
2026-05-06 03:16 23.37539 -109.30012 15069 ft 333 kts 238°
2026-05-06 03:17 23.36396 -109.32126 14620 ft 323 kts 237°
2026-05-06 03:17 23.35262 -109.34220 14174 ft 315 kts 237°
2026-05-06 03:17 23.34172 -109.36234 13744 ft 308 kts 237°
2026-05-06 03:17 23.33095 -109.38219 13319 ft 303 kts 237°
2026-05-06 03:18 23.32030 -109.40182 12892 ft 303 kts 237°
2026-05-06 03:18 23.30946 -109.42178 12466 ft 304 kts 237°
2026-05-06 03:18 23.29863 -109.44173 12039 ft 306 kts 237°
2026-05-06 03:18 23.28787 -109.46155 11614 ft 306 kts 237°
2026-05-06 03:19 23.27698 -109.48154 11199 ft 306 kts 238°
2026-05-06 03:19 23.26611 -109.50152 10819 ft 304 kts 238°
2026-05-06 03:19 23.25546 -109.52113 10516 ft 299 kts 238°
2026-05-06 03:19 23.24505 -109.54029 10251 ft 292 kts 239°
2026-05-06 03:20 23.22474 -109.57765 9786 ft 279 kts 239°
2026-05-06 03:20 23.21494 -109.59565 9421 ft 278 kts 239°
2026-05-06 03:20 23.20504 -109.61381 9043 ft 277 kts 240°
2026-05-06 03:21 23.19558 -109.63118 8680 ft 277 kts 240°
2026-05-06 03:21 23.18568 -109.64912 8307 ft 276 kts 237°
2026-05-06 03:21 23.17152 -109.66338 7936 ft 278 kts 206°
2026-05-06 03:21 23.15295 -109.66861 7657 ft 277 kts 190°
2026-05-06 03:22 23.13387 -109.67145 7349 ft 275 kts 189°
2026-05-06 03:22 23.11459 -109.67439 6980 ft 275 kts 190°
2026-05-06 03:22 23.09568 -109.67756 6627 ft 274 kts 191°
2026-05-06 03:22 23.07671 -109.68095 6281 ft 274 kts 191°
2026-05-06 03:23 23.05808 -109.68439 5945 ft 273 kts 191°
2026-05-06 03:23 23.03927 -109.68793 5675 ft 269 kts 191°
2026-05-06 03:23 23.02118 -109.69134 5336 ft 263 kts 191°
2026-05-06 03:23 23.00333 -109.69471 5000 ft 257 kts 191°
2026-05-06 03:24 22.98639 -109.70046 4679 ft 247 kts 215°
2026-05-06 03:24 22.97604 -109.71438 4335 ft 238 kts 253°
2026-05-06 03:24 22.97610 -109.73181 3970 ft 231 kts 293°
2026-05-06 03:24 22.98616 -109.74459 3619 ft 226 kts 333°
2026-05-06 03:25 23.00133 -109.74709 3217 ft 225 kts 15°
2026-05-06 03:25 23.01377 -109.73776 3052 ft 213 kts 59°
2026-05-06 03:25 23.01851 -109.72199 3059 ft 231 kts 76°
2026-05-06 03:25 23.02291 -109.70467 3034 ft 238 kts 74°
2026-05-06 03:26 23.02709 -109.68741 3008 ft 236 kts 75°
2026-05-06 03:26 23.03034 -109.67017 2988 ft 225 kts 87°
2026-05-06 03:26 23.02956 -109.65376 2993 ft 212 kts 96°
2026-05-06 03:26 23.02748 -109.63791 2997 ft 209 kts 103°
2026-05-06 03:27 23.02075 -109.62407 2987 ft 209 kts 135°
2026-05-06 03:27 23.00927 -109.61423 3012 ft 210 kts 146°
2026-05-06 03:27 22.99707 -109.60570 3008 ft 210 kts 148°
2026-05-06 03:27 22.98367 -109.59901 2997 ft 210 kts 170°
2026-05-06 03:28 22.96937 -109.60010 2995 ft 210 kts 204°
2026-05-06 03:28 22.95827 -109.61006 3004 ft 209 kts 238°
2026-05-06 03:28 22.95156 -109.62408 3019 ft 209 kts 246°
2026-05-06 03:28 22.94584 -109.63863 3070 ft 208 kts 248°
2026-05-06 03:29 22.94062 -109.65359 3068 ft 209 kts 256°
2026-05-06 03:29 22.94220 -109.66870 2931 ft 207 kts 299°
2026-05-06 03:29 22.95271 -109.67890 2819 ft 206 kts 335°
2026-05-06 03:29 22.96641 -109.68326 2713 ft 205 kts 347°
2026-05-06 03:30 22.98065 -109.68684 2586 ft 206 kts 347°
2026-05-06 03:30 22.99443 -109.69057 2465 ft 205 kts 345°
2026-05-06 03:30 23.00807 -109.69457 2392 ft 194 kts 345°
2026-05-06 03:30 23.02042 -109.69836 2233 ft 177 kts 344°
2026-05-06 03:31 23.03163 -109.70190 2074 ft 158 kts 343°
2026-05-06 03:31 23.04163 -109.70515 1958 ft 143 kts 343°
2026-05-06 03:31 23.05114 -109.70821 1946 ft 141 kts 345°
2026-05-06 03:31 23.06077 -109.71021 1878 ft 142 kts 353°
2026-05-06 03:32 23.07052 -109.71120 1665 ft 141 kts 355°
2026-05-06 03:32 23.08030 -109.71197 1463 ft 140 kts 355°
2026-05-06 03:32 23.09001 -109.71284 1282 ft 140 kts 355°
2026-05-06 03:32 23.09958 -109.71378 1113 ft 139 kts 354°
2026-05-06 03:33 23.10927 -109.71478 920 ft 139 kts 355°
2026-05-06 03:33 23.11881 -109.71577 718 ft 138 kts 354°
2026-05-06 03:33 23.12849 -109.71673 535 ft 138 kts 354°
2026-05-06 03:33 23.13802 -109.71772 372 ft 137 kts 354°
2026-05-06 03:34 23.14711 -109.71869 339 ft 116 kts 354°
2026-05-06 03:34 23.15346 -109.71936 361 ft 65 kts 354°
2026-05-06 03:34 23.15696 -109.71973 365 ft 38 kts 354°
2026-05-06 03:34 23.15875 -109.71938 367 ft 18 kts 24°
2026-05-06 03:35 23.15958 -109.71898 367 ft 5 kts 24°
2026-05-06 03:35 23.15995 -109.71880 367 ft 6 kts 24°
2026-05-06 03:35 23.16026 -109.71864 367 ft 4 kts 24°
2026-05-06 03:35 23.16054 -109.71851 367 ft 4 kts 24°
2026-05-06 03:36 23.16086 -109.71835 366 ft 8 kts 26°
2026-05-06 03:36 23.16126 -109.71772 365 ft 17 kts 84°
2026-05-06 03:36 23.16034 -109.71715 362 ft 19 kts 174°
2026-05-06 03:36 23.15899 -109.71702 360 ft 16 kts 175°
2026-05-06 03:37 23.15782 -109.71690 358 ft 17 kts 175°
2026-05-06 03:37 23.15713 -109.71664 354 ft 11 kts 108°
2026-05-06 03:37 23.15711 -109.71629 352 ft 1 kts 88°
2026-05-06 03:37 23.15712 -109.71619 352 ft 0 kts 86°
2026-05-06 03:38 23.15712 -109.71617 352 ft 0 kts 86°